User: anonymous   Login
Location: Unspecified
(0.0000°N, 0.0000°E)
Time: 22:02:17
(UTC+02:00)
Language:

Cosmos 1437 - Orbit

View from above orbital plane
View from above orbital plane
View from above satellite
View from above satellite

Ground track
Ground track

The orbit data is extracted from the following two-line orbital elements,

1 13770U 83003A   15089.37753132  .00017811  00000-0  47802-3 0  9998
2 13770 081.1624 054.0121 0008013 198.4622 320.6642 15.37795162761440
Epoch (UTC): 30 March 2015 09:03:38
Eccentricity: 0.0008013
inclination: 81.1624°
perigee height: 447 km
apogee height: 458 km
right ascension of ascending node: 54.0121°
argument of perigee: 198.4622°
revolutions per day: 15.37795162
mean anomaly at epoch: 320.6642°
orbit number at epoch: 76144

The dashed part of the orbit path shows where the satellite is in the earth's shadow,  

DLR